This demonstration page uses our WeatherBlox Daily Observations layout. Learn more.

Left ArrowRight Arrow

Hourly Observations for April 3, 2021

Temp ( °F °C ) Dew Point ( °F °C ) Humidity (%) Winds ( mph kmh ) Pressure ( in mb ) Visibility ( mi km ) Precip ( " mm )
12:53 am 00:53 Clear 54 12.2 34 1.1 47 47 SSW 12 19 30.02 1017 10 16 0.00 0.00
1:53 am 01:53 Clear 52 11.1 34 1.1 50 50 SSW 10 17 30.03 1017 10 16 0.00 0.00
2:53 am 02:53 Clear 50 10 34 1.1 54 54 SW 9 15 30.03 1017 10 16 0.00 0.00
3:53 am 03:53 Clear 45 7.2 33 0.6 63 63 SW 5 7 30.04 1017 10 16 0.00 0.00
4:53 am 04:53 Clear 46 7.8 34 1.1 63 63 SW 3 6 30.05 1018 10 16 0.00 0.00
5:53 am 05:53 Clear 46 7.8 34 1.1 63 63 S 5 7 30.06 1018 10 16 0.00 0.00
6:53 am 06:53 Clear 41 5 33 0.6 73 73 Calm 30.08 1019 10 16 0.00 0.00
7:53 am 07:53 Sunny 37 2.8 32 0 82 82 Calm 30.11 1020 10 16 0.00 0.00
8:53 am 08:53 Sunny 48 8.9 35 1.7 61 61 Calm 30.11 1020 10 16 0.00 0.00
9:53 am 09:53 Sunny 54 12.2 37 2.8 53 53 SW 5 7 30.12 1020 10 16 0.00 0.00
10:53 am 10:53 Sunny 63 17.2 38 3.3 40 40 undefined N/A 30.13 1020 10 16 0.00 0.00
11:53 am 11:53 Sunny 69 20.6 34 1.1 27 27 E 8 13 30.12 1020 10 16 0.00 0.00
12:53 pm 12:53 Sunny 73 22.8 30 -1.1 20 20 E 17 28 30.11 1020 10 16 0.00 0.00
1:53 pm 13:53 Sunny 75 23.9 32 0 21 21 SE 10 17 30.10 1019 10 16 0.00 0.00
2:53 pm 14:53 Sunny 76 24.4 31 -0.6 19 19 ESE 12 19 30.09 1019 10 16 0.00 0.00
3:53 pm 15:53 Sunny 78 25.6 30 -1.1 17 17 ESE 14 22 30.08 1019 10 16 0.00 0.00
4:53 pm 16:53 Sunny 77 25 31 -0.6 18 18 SSE 13 20 30.07 1018 10 16 0.00 0.00
5:53 pm 17:53 Sunny 77 25 31 -0.6 18 18 SE 10 17 30.06 1018 10 16 0.00 0.00
6:53 pm 18:53 Sunny 76 24.4 31 -0.6 19 19 SSE 10 17 30.07 1018 10 16 0.00 0.00
7:53 pm 19:53 Sunny 71 21.7 35 1.7 27 27 SSE 8 13 30.08 1019 10 16 0.00 0.00
8:53 pm 20:53 Clear 66 18.9 34 1.1 30 30 SSE 7 11 30.09 1019 10 16 0.00 0.00
9:53 pm 21:53 Clear 63 17.2 37 2.8 38 38 S 7 11 30.09 1019 10 16 0.00 0.00
10:53 pm 22:53 Clear 62 16.7 40 4.4 44 44 SSE 10 17 30.07 1018 10 16 0.00 0.00
11:53 pm 23:53 Clear 59 15 41 5 51 51 SSE 9 15 30.06 1018 10 16 0.00 0.00

Powered by AerisWeather